Regional Weather Roundup
Issued by NWS

Home | Current Version | Previous Version | Text Only | Print | Product List | Glossary On
Versions: 1 2 3 4 5 6 7 8 9 10 11 12 13 14 15 16 17 18 19 20 21 22 23 24 25 26 27 28 29 30 31 32 33 34 35 36 37 38 39 40 41 42 43 44 45 46 47 48 49 50
000
ASUS43 KLMK 201902
RWRKY
KENTUCKY REGIONAL WEATHER ROUNDUP
NATIONAL WEATHER SERVICE LOUISVILLE KY
300 PM EDT FRI APR 20 2018

NOTE "FAIR" INDICATES FEW OR NO CLOUDS BELOW 12,000 FEET
WITH NO SIGNIFICANT WEATHER AND/OR OBSTRUCTIONS TO VISIBILITY.

KYZ001>023-026-027-061>063-070>075-202000-
WESTERN AND SOUTH CENTRAL KENTUCKY

CITY           SKY/WX    TMP DP  RH WIND       PRES   REMARKS
PADUCAH        FAIR      63  28  26 E12G18    30.40F
HENDERSON      FAIR      61  29  29 NE9       30.44F
OWENSBORO      FAIR      61  28  28 NE9       30.42F
HOPKINSVILLE   FAIR      61  29  30 E9        30.40F
BOWLING GREEN  FAIR      63  33  32 E8G17     30.41F
GLASGOW        NOT AVBL
$$

KYZ024-025-028>034-038-045-046-053-202000-
NORTH CENTRAL KENTUCKY

CITY           SKY/WX    TMP DP  RH WIND       PRES   REMARKS
LOUISVILLE/SDF FAIR      61  24  24 E9        30.43F
LOUISVILLE/LOU FAIR      61  29  29 E7        30.44F
FORT KNOX      FAIR      61  26  26 NE9       30.42F
$$

KYZ035>037-039>044-047>052-055>060-089>105-202000-
NORTHEAST KENTUCKY

CITY           SKY/WX    TMP DP  RH WIND       PRES   REMARKS
LEXINGTON      FAIR      58  30  34 NE9G18    30.43F
COVINGTON      FAIR      57  22  25 NE7       30.44F
FRANKFORT      FAIR      60  25  26 E9        30.42F
$$

KYZ054-064>069-076>088-106>120-202000-
SOUTHEAST KENTUCKY

CITY           SKY/WX    TMP DP  RH WIND       PRES   REMARKS
JACKSON        FAIR      57  22  25 VRB5      30.39F
LONDON         FAIR      60  27  28 NW8       30.39F
SOMERSET       NOT AVBL
MIDDLESBORO    FAIR      62  24  24 N5        30.36F
MONTICELLO     FAIR      59  30  33 N14G25    30.41F
$$





USA.gov is the U.S. government's official web portal to all federal, state and local government web resources and services.